Regional Weather Roundup
Issued by NWS

Home | Current Version | Previous Version | Graphics & Text | Print | Product List | Glossary On
Versions: 1 2 3 4 5 6 7 8 9 10 11 12 13 14 15 16 17 18 19 20 21 22 23 24 25 26 27 28 29 30 31 32 33 34 35 36 37 38 39 40 41 42 43 44 45 46 47 48 49 50
000
ASUS45 KBOU 042007
RWRCO

WEATHER ROUNDUP FOR COLORADO
NATIONAL WEATHER SERVICE DENVER/BOULDER CO
200 PM MDT MON MAY 04 2015

NOTE: "FAIR" INDICATES FEW OR NO CLOUDS BELOW 12000 FEET WITH NO
SIGNIFICANT WEATHER AND/OR OBSTRUCTIONS TO VISIBILITY.

COZ001>005-013-030-031-042100-
...NORTHWEST COLORADO...

CITY           SKY/WX    TMP DP  RH WIND       PRES   REMARKS
CRAIG          PTSUNNY   63  38  39 SE8       30.02F
HAYDEN         NOT AVBL
MEEKER         CLOUDY    60  40  47 S9        30.04R
MOUNT WERNER   NOT AVBL
STEAMBOAT SPGS PTSUNNY   60  38  43 SW9       30.05F
WALDEN         CLOUDY    43  37  81 SW6       30.15S
$$

COZ006>008-011-042100-
...WEST CENTRAL VALLEYS...

CITY           SKY/WX    TMP DP  RH WIND       PRES   REMARKS
GRAND JUNCTION PTSUNNY   68  40  35 W9        29.93F
MONTROSE       PTSUNNY   65  39  38 SW17G26   30.00F
EAGLE          TSTM      57  43  58 NW6       30.05S
RIFLE          CLOUDY    63  44  50 NE5       30.00F
DELTA          PTSUNNY   71  38  30 SW8       29.96S
NUCLA          RAIN      55  45  67 CALM      30.09R
$$

COZ017>023-064>068-042100-
...SOUTHWEST COLORADO...

CITY           SKY/WX    TMP DP  RH WIND       PRES   REMARKS
DURANGO        PTSUNNY   61  39  44 SW12      30.01F THUNDER
CORTEZ         PTSUNNY   70  36  28 SW10G21   29.97F
PAGOSA SPRINGS PTSUNNY   64  27  24 S17       30.07F
TELLURIDE      CLOUDY    48  40  74 SE8       30.18F
WOLF CREEK PAS NOT AVBL
$$

COZ009-010-012-014-032>034-037-058>063-042100-
...CENTRAL COLORADO...

CITY           SKY/WX    TMP DP  RH WIND       PRES   REMARKS
ASPEN          PTSUNNY   58  37  45 N13       30.07R
BUENA VISTA    NOT AVBL
COPPER MTN     PTSUNNY   45  25  45 SW6       30.28F THUNDER
BERTHOUD PASS  FAIR      32  27  80 SE9       30.32F THUNDER WCI  24
COTTONWOOD PAS CLOUDY    46  34  61 NW6       30.22R THUNDER
GUNNISON       PTSUNNY   57  36  44 SE13      30.11S
KREMMLING      PTSUNNY   59  34  38 N12       30.07F
LEADVILLE      PTSUNNY   50  32  50 S24G30    30.16F
MONARCH PASS   CLOUDY    36  30  80 S15G25    30.41S
SALIDA         CLOUDY    58  42  55 W7        30.19S
SUNLIGHT       NOT AVBL
WILKERSON PASS CLOUDY    37  36  93 CALM      30.31S
$$

COZ069>075-042100-
...SAN LUIS VALLEY/SANGRE DE CRISTO MOUNTAINS...

CITY           SKY/WX    TMP DP  RH WIND       PRES   REMARKS
ALAMOSA        MOSUNNY   61  30  31 W3        30.06F
LA VETA PASS   TSTM      39  37  93 MISG      30.23F VSB<1/4
SAGUACHE       PTSUNNY   61  32  33 SE6       30.10F THUNDER
$$

COZ035-036-038>040-042100-
...NORTHERN COLORADO FRONT RANGE...

CITY           SKY/WX    TMP DP  RH WIND       PRES   REMARKS
DENVER INTL AP PTSUNNY   60  48  64 NE8       30.09F
DMNS CITY PARK   N/A     60  47  62 NE3G9     30.08F
AURORA         PTSUNNY   59  49  71 E10       30.09F
FRONT RANGE AP PTSUNNY   59  52  77 E10G17    30.10F
ERIE MUNI ARPT CLOUDY    56  48  75 E5        30.10S
BOULDER MUN AP CLOUDY    55  48  76 NW5       30.10F
CENTENNIAL     PTSUNNY   58  46  64 SE8       30.10F
BROOMFIELD     NOT AVBL
FORT COLLINS   CLOUDY    57  46  67 SE6       30.12F
LONGMONT       CLOUDY    58  49  71 CALM      30.11F
$$

COZ041-046-047-076>085-087-088-042100-
...PIKES PEAK/PALMER DIVIDE AND SOUTHERN FOOTHILLS...

CITY           SKY/WX    TMP DP  RH WIND       PRES   REMARKS
COLO. SPRINGS  PTSUNNY   62  42  47 S10       30.10F
A. F. ACADEMY  PTSUNNY   58  43  57 S7        30.10F
ELLICOTT       PTSUNNY  N/A N/A N/A SE14      30.09F
FALCON         CLOUDY    56  44  62 SE14      30.14F
FORT CARSON    PTSUNNY   62  46  55 SE13      30.07F
LIMON          CLOUDY    61  47  59 E14       30.10F
MONUMENT HILL  CLOUDY    50  43  76 NE7       30.13F
TRINIDAD       NOT AVBL
$$

COZ042>045-048>051-090-091-042100-
...NORTHEAST COLORADO...

CITY           SKY/WX    TMP DP  RH WIND       PRES   REMARKS
GREELEY ARPT   CLOUDY    57  45  62 SE10      30.11F
AKRON          CLOUDY    56  44  64 E10       30.12F
BURLINGTON     CLOUDY    60  48  64 E13G20    30.11F
WRAY           CLOUDY    54  48  81 NE9       30.14S
STERLING       CLOUDY    61  45  55 SE9       30.10F
HOLYOKE        NOT AVBL
FORT MORGAN    CLOUDY    58 -13   5 E8        30.12F
$$

COZ086-089-092>099-042100-
...SOUTHEAST COLORADO...

CITY           SKY/WX    TMP DP  RH WIND       PRES   REMARKS
PUEBLO         PTSUNNY   66  47  50 E15       30.02F
LA JUNTA       PTSUNNY   69  48  47 E15       30.04F
LAMAR          PTSUNNY   71  51  49 NE10      30.01F
SPRINGFIELD      N/A     71  50  47 E8        30.01F
$$


USA.gov is the U.S. government's official web portal to all federal, state and local government web resources and services.